Regional Weather Roundup
Issued by NWS

Home | Current Version | Previous Version | Text Only | Print | Product List | Glossary On
Versions: 1 2 3 4 5 6 7 8 9 10 11 12 13 14 15 16 17 18 19 20 21 22 23 24 25 26 27 28 29 30 31 32 33 34 35 36 37 38 39 40 41 42 43 44 45 46 47 48 49 50
000
ASUS42 KTBW 011710
RWRFL
FLORIDA REGIONAL WEATHER ROUNDUP
NATIONAL WEATHER SERVICE TAMPA BAY RUSKIN FL
1200 PM EST SUN FEB 01 2015

NOTE: "FAIR" INDICATES FEW OR NO CLOUDS BELOW 12,000 FEET WITH NO
SIGNIFICANT WEATHER AND/OR OBSTRUCTIONS TO VISIBILITY.


FLZ001>010-012>015-112-114-115-011800-
PANHANDLE FLORIDA

CITY           SKY/WX    TMP DP  RH WIND       PRES   REMARKS
PENSACOLA      CLOUDY    68  60  75 S14       30.06F
PENSACOLA NAS  LGT RAIN  66  60  81 S13       30.05F
MILTON NAS     CLOUDY    69  59  70 S20       30.06F
CRESTVIEW      CLOUDY    69  60  73 S14G22    30.09F
DUKE FIELD     PTSUNNY   69  61  74 S17G26    30.07F
VALPARAISO     PTSUNNY   68  61  77 SE15      30.08F
MARY ESTHER    PTSUNNY   68  59  72 S16       30.07F
TRI COUNTY     PTSUNNY   65  56  72 S12G18    30.11F
PANAMA CITY    CLOUDY    66  57  72 SE15G26   30.11F
TYNDALL AFB    SUNNY     68  58  71 SE16G32   30.12F
APALACHICOLA   PTSUNNY   69  57  65 SE15      30.14F

STATION/POSITION SKY/WX   TEMP    WIND        PRES    WAVE   SWELL
                          AIR SEA DIR/SP/G            HT/PER HT/PER
                          (F)     (DEG/KT/KT) (MB)    (FT/S) (FT/S)
30.1N   87.6W              66 62  160/ 12/ 14 1016.8F   6/ 7   5/ 7
29.2N   88.2W              68 69  170/ 21/ 23 1017.5F   6/ 7
28.7N   86.0W              69 69  160/ 23/ 27 1018.9F   8/ 7
PANAMA CITY BEAC           62 59  130/ 18/ 19 1019.2F
CAPE SAN BLAS    NOT AVBL
TOWER C                    64     150/ 22/ 24 1020.0F
28.5N   84.5W              67 67  150/ 21/ 25 1020.6F   6/ 6   2/12

$$
FLZ011-016>038-118-127-128-134-139-239-011800-
NORTH FLORIDA

CITY           SKY/WX    TMP DP  RH WIND       PRES   REMARKS
MARIANNA       MOSUNNY   67  54  63 S12       30.12F
TALLAHASSEE    MOSUNNY   69  48  47 SE16G25   30.15F
PERRY          SUNNY     71  50  48 S14G21    30.17F
CROSS CITY       N/A     72  50  45 S12G18    30.18F
LAKE CITY      FAIR      70  50  49 S12G26    30.18F
GAINESVILLE    SUNNY     69  49  48 S14G26    30.21F
MAYPORT NAS    MOSUNNY   69  50  50 SE10      30.23F
JACKSONVILLE   MOSUNNY   70  50  49 SE16      30.21F
JAX NAS        MOSUNNY   69  51  52 S10       30.23F
JAX CRAIG      SUNNY     70  50  49 SE16G22   30.22F
JAX CECIL      MOSUNNY   68  52  56 S12       30.22F
FERNANDINA BEA FAIR      72  52  49 SE12      30.22F
ST AUGUSTINE   PTSUNNY   68  54  60 E10       30.24F

STATION/POSITION SKY/WX   TEMP    WIND        PRES    WAVE   SWELL
                          AIR SEA DIR/SP/G            HT/PER HT/PER
                          (F)     (DEG/KT/KT) (MB)    (FT/S) (FT/S)
SHELL POINT                58     130/ 14/ 18   N/A
KEATON BEACH               65     150/ 22/ 25 1021.7F
CEDAR KEY                  59     130/  9/ 10 1023.8F
FERNANDINA                 66 55  170/  8/ 16 1023.1F
30.7N   81.3W                 57                N/A     2/10   2/11
MAYPORT                    67 57  140/  8/ 16 1023.6F
31.4N   80.9W              58 54  110/  6/  8 1023.9F   2/10   2/10
ST AUGUSTINE               61      70/  5/  5 1024.4F

$$
FLZ040-043>046-052-053-057-058-063-144-011800-
INTERIOR CENTRAL FLORIDA

CITY           SKY/WX    TMP DP  RH WIND       PRES   REMARKS
OCALA          MOSUNNY   70  48  46 MISG      30.22F
THE VILLAGES     N/A     70  52  52 E15       30.13F
LEESBURG       MOSUNNY   71  52  50 SE12      30.24F
SANFORD        SUNNY     73  50  44 S14       30.23F
ORLANDO EXEC   SUNNY     72  48  42 S17       30.23F
ORLANDO INTL   MOSUNNY   74  49  41 S17G25    30.23F
KISSIMMEE      PTSUNNY   72  52  49 S13       30.24F
WINTER HAVEN   MOSUNNY   72  50  45 SE17G24   30.24F
LAKELAND       MOSUNNY   72  52  49 MISG      30.23F
BARTOW         PTSUNNY   70  50  49 SE23G29   30.24F
OKEECHOBEE     FAIR      72  54  53 SE13G20   30.23F

$$
FLZ041-047-054-059-064-141-147-011800-
EAST CENTRAL FLORIDA

CITY           SKY/WX    TMP DP  RH WIND       PRES   REMARKS
ORMOND BEACH   MOSUNNY   68  54  60 SW10G17   30.24F
DAYTONA BEACH  PTSUNNY   70  52  52 S9        30.23F
DELAND         MOSUNNY   70  50  49 S10G17    30.25F
JFK SPACE CTR  PTSUNNY   69  55  60 S7        30.23F
TITUSVILLE     PTSUNNY   72  54  53 SE14G21   30.23F
CAPE CANAVERAL SUNNY     70  55  58 S13       30.23F
PATRICK AFB    FAIR      71  54  55 S16       30.24F
MELBOURNE      FAIR      73  48  41 SE17G25   30.24F
VERO BEACH     CLOUDY    71  52  50 SE16      30.25F
FT PIERCE      CLOUDY    71  52  50 E18       30.23F
STUART         PTSUNNY   72  52  49 SE13      30.25F

STATION/POSITION SKY/WX   TEMP    WIND        PRES    WAVE   SWELL
                          AIR SEA DIR/SP/G            HT/PER HT/PER
                          (F)     (DEG/KT/KT) (MB)    (FT/S) (FT/S)
28.5N   80.2W              68 69  140/ 16/ 19 1024.5F
28.9N   78.5W              66 74  110/ 12/ 17 1025.6F   6/11   5/11
TRIDENT PIER               67 62  170/  5/ 11 1024.8F
28.4N   80.5W                 62                N/A     3/ 5
27.6N   80.2W                 65                N/A     5/11   2/11

$$
FLZ050-056-061-142-242-148-248-149-249-151-251-155-255-
160-260-011800-
WEST CENTRAL FLORIDA

CITY           SKY/WX    TMP DP  RH WIND       PRES   REMARKS
CRYSTAL RIVER  FAIR      72  46  40 SE10      30.20F
INVERNESS      FAIR      72  48  43 S15       30.22F
BROOKSVILLE    SUNNY     72  50  45 SE14G23   30.21F
ZEPHYRHILLS    FAIR      72  46  40 SE14G20   30.23F
CLEARWATER     SUNNY     72  54  53 SE18      30.20F
TAMPA INTL     MOSUNNY   71  50  47 SE13G21   30.21F
TAMPA EXEC     SUNNY     73  52  46 S10G17    30.22F
PLANT CITY       N/A    N/A N/A N/A MISG        N/A
MACDILL AFB    SUNNY     71  55  57 SE17      30.20F
PETER O KNIGHT SUNNY     73  55  53 SE12G20   30.21F
ST PETERSBURG  SUNNY     70  54  56 S14       30.18F
SARASOTA       SUNNY     73  50  44 SE14      30.17F
VENICE         FAIR      73  50  43 SE15      30.20F

STATION/POSITION SKY/WX   TEMP    WIND        PRES    WAVE   SWELL
                          AIR SEA DIR/SP/G            HT/PER HT/PER
                          (F)     (DEG/KT/KT) (MB)    (FT/S) (FT/S)
CEDAR KEY                  59     130/  9/ 10 1023.8F
28.5N   84.5W              67 67  150/ 21/ 25 1020.6F   6/ 6   2/12
27.3N   84.3W                 72                N/A     7/ 7
CLEARWATER BEACH           68 60  120/ 14/ 18 1022.2F
MIDDLE TAMPA BAY           68     160/ 13/ 20 1022.7F
VENICE                     70 63  140/ 13/ 16 1022.0F

$$
FLZ066-069-070-075>078-162-262-165-265-011800-
SOUTHWEST FLORIDA AND KEYS

CITY           SKY/WX    TMP DP  RH WIND       PRES   REMARKS
PUNTA GORDA    SUNNY     74  51  44 SE14G23   30.22F
FT MYERS       SUNNY     73  52  47 SE16G23   30.19F
SOUTHWEST INTL SUNNY     73  52  47 SE15      30.20F
NAPLES         MOSUNNY   74  51  44 SE15G24   30.19F
MARCO ISLAND   SUNNY     75  52  43 E14       30.19F
IMMOKALEE      MOSUNNY   77  52  41 SE15G22   30.22F
MARATHON       PTSUNNY   76  61  59 E10G20    30.17F
KEY WEST NAS   PTSUNNY   77  60  55 SE13      30.16F
KEY WEST INTL  PTSUNNY   75  62  64 E13       30.17F

STATION/POSITION SKY/WX   TEMP    WIND        PRES    WAVE   SWELL
                          AIR SEA DIR/SP/G            HT/PER HT/PER
                          (F)     (DEG/KT/KT) (MB)    (FT/S) (FT/S)
VENICE                     70 63  140/ 13/ 16 1022.0F
NAPLES                     71     140/ 10/ 14 1022.9F
26.0N   85.6W              71 72  130/ 21/ 25 1019.0F   7/ 8   2/11
DRY TORTUGAS               70     100/ 20/ 22 1021.3R
NW FL BAY                  68      90/  8/ 10 1023.1F
SAND KEY                   73     120/ 18/ 20 1021.3F
SOMBRERO KEY               73     110/ 19/ 21 1022.2F
LONG KEY                   71 67   90/ 10/ 14 1023.3F
MOLASSES REEF              71 75  120/ 19/ 21 1022.0F

$$
FLZ067-068-071>074-168-172>174-011800-
SOUTHEAST FLORIDA

CITY           SKY/WX    TMP DP  RH WIND       PRES   REMARKS
W PALM BEACH   PTSUNNY   73  55  53 SE16      30.22F
FT LAUDER-EXEC MOSUNNY   75  54  47 E17G23    30.21F
FT LAUDERDALE  PTSUNNY   73  55  53 SE20      30.21F
POMPANO BEACH  FAIR      77  55  46 SE17      30.22F
PEMBROKE PINES PTSUNNY   74  53  48 SE12      30.22F
OPA LOCKA      PTSUNNY   75  54  47 SE17G23   30.21F
MIAMI          PTSUNNY   75  54  47 E17       30.21F
WEST KENDALL   MOSUNNY   75  55  49 E15       30.21F
HOMESTEAD      SUNNY     74  57  56 E14       30.20F

STATION/POSITION SKY/WX   TEMP    WIND        PRES    WAVE   SWELL
                          AIR SEA DIR/SP/G            HT/PER HT/PER
                          (F)     (DEG/KT/KT) (MB)    (FT/S) (FT/S)
PORT EVERGLADES            72     130/ 11/ 15 1023.0
VIRGINIA KEY               71 68  110/  9/ 12 1023.5F



USA.gov is the U.S. government's official web portal to all federal, state and local government web resources and services.